sat.trackr.live / text

‹ back to catalog

STARLINK-33663

NORAD 63652 · 2025-083U

PAYLOAD ACTIVE UNKNOWN

§ Identity

Operator
Country
US
Launch date
2025-04-25
Launch site
AFETR
Launch vehicle
Mass (kg)
RCS (m²)

Purposes: comms

External: N2YO · Heavens-Above · Gunter

§ Orbital elements

Epoch: 2026-05-24T21:27:52.051680Z

Period
94.27 min
Inclination
42.9994°
Eccentricity
0.0001382
Mean motion
15.27596547 rev/d
Perigee alt
482.1 km
Apogee alt
483.9 km
Semi-major
6,861.1 km
B*
7.0573e-4
RAAN
294.6428°
Arg perigee
266.1919°
Mean anomaly
93.8774°
Rev number
6,172

§ Raw data

STARLINK-336631 63652U 25083U   26144.89435245  .00019218  00000+0  70573-3 0  99922 63652  42.9994 294.6428 0001382 266.1919  93.8774 15.27596547 61729

JSON: /api/v1/satellites/63652 · /tle

For live sub-satellite position, see the globe view (requires WebGL).

§ Visibility from observer

Set your observer location to see the next 7 days of passes ≥ 10°. The values pass through the URL so the page stays shareable.

No JS? Fill the form by hand. The geolocation button needs JavaScript.